Date String (YYYY-MM-DD hh:mm:ss) UTC,Instrument flags,Ambient pressure (hPa),Sample flow (lpm),Bypass flow (lpm),Sample temperature (°C),Ambient temperature (°C),ASC tube jacket temperature (°C),LED temperature (°C),Box temperature (°C),Sample RH (%),Span deviation,Mass concentration (μg/m³),Mass concentration (μg/m³),Mass concentration (μg/m³)
DateTimeUTC,F1_M11,P_M11,Q1_M11,Q2_M11,T1_M11,T2_M11,T3_M11,T4_M11,T5_M11,U1_M11,ZSPAN_M11,X0_M11,X2_M11,X1_M11
2023-02-15 22:00:00,,0822.9,5.02,0.00,23.1,22.0,00.0,32.0,24.9,07.6,0000.0,0004.50,0002.46,0002.08
2023-02-15 22:01:00,,0822.9,4.99,0.00,23.1,21.6,00.0,32.0,24.8,07.6,0000.0,0004.39,0002.46,0002.08
2023-02-15 22:02:00,,0822.9,4.99,0.00,23.1,21.4,00.0,32.0,24.8,07.6,0000.0,0004.39,0002.47,0002.07
2023-02-15 22:03:00,,0822.9,5.01,0.00,23.0,21.2,00.0,32.0,24.7,07.6,0000.0,0004.36,0002.46,0002.07
2023-02-15 22:04:00,,0823.0,5.00,0.00,23.0,21.1,00.0,32.0,24.6,07.7,0000.0,0004.60,0002.49,0002.07
2023-02-15 22:05:00,,0823.0,5.01,0.00,23.0,21.0,00.0,32.0,24.6,07.8,0000.0,0004.75,0002.47,0002.07
2023-02-15 22:06:00,,0822.9,5.00,0.00,23.0,21.5,00.0,31.9,24.7,07.8,0000.0,0004.58,0002.45,0002.07
2023-02-15 22:07:00,,0823.0,4.98,0.00,23.1,22.6,00.0,31.9,24.9,07.8,0000.0,0004.45,0002.45,0002.07
2023-02-15 22:08:00,,0823.0,4.93,0.00,23.2,23.4,00.0,31.9,25.1,07.7,0000.0,0004.40,0002.44,0002.06
2023-02-15 22:09:00,,0823.0,4.99,0.00,23.2,23.1,00.0,31.9,25.1,07.6,0000.0,0004.50,0002.44,0002.05
2023-02-15 22:10:00,,0823.0,5.01,0.00,23.2,22.6,00.0,32.0,25.0,07.6,0000.0,0004.50,0002.43,0002.05
2023-02-15 22:11:00,,0823.0,5.00,0.00,23.2,22.1,00.0,32.0,24.9,07.6,0000.0,0004.52,0002.44,0002.06
2023-02-15 22:12:00,,0823.0,4.99,0.00,23.1,21.8,00.0,32.0,24.8,07.6,0000.0,0004.56,0002.43,0002.05
2023-02-15 22:13:00,,0823.0,4.98,0.00,23.1,21.5,00.0,32.0,24.8,07.7,0000.0,0004.67,0002.45,0002.04
2023-02-15 22:14:00,,0823.0,5.00,0.00,23.1,21.4,00.0,32.0,24.8,07.8,0000.0,0004.74,0002.47,0002.03
2023-02-15 22:15:00,,0823.0,5.02,0.00,23.0,21.2,00.0,32.0,24.7,07.8,0000.0,0004.74,0002.47,0002.03
2023-02-15 22:16:00,,0823.0,5.00,0.00,23.0,21.0,00.0,31.9,24.6,07.9,0000.0,0004.08,0002.51,0002.03
2023-02-15 22:17:00,,0822.9,4.99,0.00,22.9,21.0,00.0,31.9,24.5,07.9,0000.0,0004.18,0002.51,0002.03
2023-02-15 22:18:00,,0823.1,4.98,0.00,23.0,21.8,00.0,31.9,24.7,08.0,0000.0,0004.77,0002.51,0002.03
2023-02-15 22:19:00,,0822.9,4.90,0.00,23.1,22.8,00.0,31.8,25.0,07.9,0000.0,0004.80,0002.52,0002.03
2023-02-15 22:20:00,,0823.0,4.98,0.00,23.2,23.4,00.0,31.9,25.1,07.8,0000.0,0004.76,0002.52,0002.04
2023-02-15 22:21:00,,0823.0,5.00,0.00,23.2,22.9,00.0,31.9,25.0,07.7,0000.0,0005.37,0002.53,0002.04
2023-02-15 22:22:00,,0822.9,4.98,0.00,23.2,22.4,00.0,31.9,24.9,07.7,0000.0,0005.37,0002.52,0002.03
2023-02-15 22:23:00,,0823.0,5.00,0.00,23.1,22.0,00.0,32.0,24.9,07.7,0000.0,0005.46,0002.54,0002.04
2023-02-15 22:24:00,,0822.9,5.00,0.00,23.1,21.7,00.0,32.0,24.8,07.7,0000.0,0005.44,0002.56,0002.05
2023-02-15 22:25:00,,0823.0,5.00,0.00,23.0,21.4,00.0,31.9,24.7,07.7,0000.0,0005.39,0002.53,0002.05
2023-02-15 22:26:00,,0823.0,5.01,0.00,23.0,21.2,00.0,31.9,24.6,07.7,0000.0,0005.38,0002.52,0002.04
2023-02-15 22:27:00,,0822.9,5.02,0.00,22.9,21.1,00.0,31.9,24.6,07.7,0000.0,0005.36,0002.54,0002.05
2023-02-15 22:28:00,,0823.0,5.02,0.00,22.9,21.2,00.0,31.9,24.6,07.7,0000.0,0005.31,0002.56,0002.07
2023-02-15 22:29:00,,0823.1,5.05,0.00,23.0,22.2,00.0,31.8,24.8,07.8,0000.0,0004.47,0002.53,0002.08
2023-02-15 22:30:00,,0823.1,5.01,0.00,23.1,23.2,00.0,31.8,25.1,07.8,0000.0,0004.44,0002.53,0002.09
2023-02-15 22:31:00,,0823.1,4.97,0.00,23.2,23.4,00.0,31.9,25.1,07.7,0000.0,0004.49,0002.55,0002.12
2023-02-15 22:32:00,,0823.1,4.97,0.00,23.2,22.8,00.0,31.9,25.0,07.7,0000.0,0003.96,0002.57,0002.15
2023-02-15 22:33:00,,0823.1,4.99,0.00,23.2,22.3,00.0,31.9,24.9,07.6,0000.0,0003.88,0002.60,0002.20
2023-02-15 22:34:00,,0823.1,4.98,0.00,23.1,21.9,00.0,32.0,24.9,07.6,0000.0,0003.77,0002.59,0002.22
2023-02-15 22:35:00,,0823.1,5.01,0.00,23.1,21.6,00.0,32.0,24.8,07.6,0000.0,0003.63,0002.56,0002.24
2023-02-15 22:36:00,,0823.1,5.00,0.00,23.1,21.4,00.0,31.9,24.7,07.7,0000.0,0003.57,0002.57,0002.27
2023-02-15 22:37:00,,0823.1,5.00,0.00,23.0,21.3,00.0,31.9,24.7,07.7,0000.0,0003.58,0002.57,0002.27
2023-02-15 22:38:00,,0823.1,5.01,0.00,23.0,21.1,00.0,31.9,24.6,07.7,0000.0,0003.44,0002.50,0002.25
2023-02-15 22:39:00,,0823.1,4.98,0.00,22.9,21.1,00.0,31.9,24.6,07.7,0000.0,0003.28,0002.46,0002.22
2023-02-15 22:40:00,,0823.1,5.01,0.00,22.9,21.1,00.0,31.9,24.6,07.7,0000.0,0003.20,0002.42,0002.20
2023-02-15 22:41:00,,0823.1,4.96,0.00,22.9,21.9,00.0,31.8,24.8,07.7,0000.0,0003.19,0002.41,0002.19
2023-02-15 22:42:00,,0823.2,5.06,0.00,23.1,22.9,00.0,31.8,25.0,07.7,0000.0,0003.28,0002.41,0002.15
2023-02-15 22:43:00,,0823.2,5.01,0.00,23.2,23.4,00.0,31.8,25.1,07.7,0000.0,0003.32,0002.41,0002.11
2023-02-15 22:44:00,,0823.2,4.98,0.00,23.2,22.8,00.0,31.9,25.0,07.7,0000.0,0003.36,0002.39,0002.06
2023-02-15 22:45:00,,0823.2,4.97,0.00,23.1,22.3,00.0,31.9,24.9,07.7,0000.0,0003.35,0002.37,0002.03
2023-02-15 22:46:00,,0823.1,4.99,0.00,23.1,21.9,00.0,31.9,24.8,07.7,0000.0,0003.37,0002.36,0001.99
2023-02-15 22:47:00,,0823.2,5.00,0.00,23.0,21.5,00.0,31.9,24.7,07.7,0000.0,0003.44,0002.36,0001.97
2023-02-15 22:48:00,,0823.2,5.00,0.00,23.0,21.3,00.0,31.9,24.6,07.7,0000.0,0003.41,0002.35,0001.96
2023-02-15 22:49:00,,0823.2,5.01,0.00,23.0,21.1,00.0,31.9,24.6,07.7,0000.0,0003.46,0002.35,0001.97
2023-02-15 22:50:00,,0823.2,5.01,0.00,22.9,21.0,00.0,31.9,24.5,07.7,0000.0,0003.51,0002.37,0001.97
2023-02-15 22:51:00,,0823.2,5.01,0.00,22.9,21.7,00.0,31.8,24.7,07.7,0000.0,0003.73,0002.45,0001.97
2023-02-15 22:52:00,,0823.2,4.97,0.00,23.0,22.7,00.0,31.8,24.9,07.7,0000.0,0003.83,0002.48,0001.96
2023-02-15 22:53:00,,0823.3,5.03,0.00,23.1,23.3,00.0,31.8,25.1,07.6,0000.0,0003.69,0002.46,0001.97
2023-02-15 22:54:00,,0823.3,5.01,0.00,23.2,22.8,00.0,31.9,25.0,07.6,0000.0,0003.66,0002.44,0001.99
2023-02-15 22:55:00,,0823.3,4.97,0.00,23.1,22.4,00.0,31.9,24.9,07.7,0000.0,0003.61,0002.40,0001.99
2023-02-15 22:56:00,,0823.4,5.00,0.00,23.1,22.0,00.0,31.9,24.8,07.7,0000.0,0003.55,0002.38,0001.99
2023-02-15 22:57:00,,0823.4,4.99,0.00,23.0,21.6,00.0,31.9,24.7,07.7,0000.0,0003.56,0002.39,0002.00
2023-02-15 22:58:00,,0823.4,5.00,0.00,23.0,21.4,00.0,31.9,24.7,07.7,0000.0,0003.60,0002.41,0002.00
2023-02-15 22:59:00,,0823.4,5.00,0.00,23.0,21.2,00.0,31.9,24.6,07.7,0000.0,0003.72,0002.44,0002.01
